TimeMDT,TemperatureF,Dew PointF,Humidity,Sea Level PressureIn,VisibilityMPH,Wind Direction,Wind SpeedMPH,Gust SpeedMPH,PrecipitationIn,Events,Conditions,WindDirDegrees,DateUTC
12:53 AM,48.0,30.9,52,30.06,10.0,ENE,6.9,-,N/A,,Clear,60,2013-10-22 06:53:00
1:53 AM,46.9,32.0,56,30.08,10.0,ENE,9.2,-,N/A,,Clear,60,2013-10-22 07:53:00
2:53 AM,44.1,30.9,60,30.08,10.0,ENE,8.1,-,N/A,,Clear,70,2013-10-22 08:53:00
3:53 AM,42.1,30.0,62,30.09,10.0,ENE,6.9,-,N/A,,Clear,60,2013-10-22 09:53:00
4:53 AM,42.1,30.9,65,30.09,10.0,North,4.6,-,N/A,,Clear,360,2013-10-22 10:53:00
5:53 AM,39.9,30.0,68,30.11,10.0,North,4.6,-,N/A,,Clear,10,2013-10-22 11:53:00
6:53 AM,37.0,27.0,67,30.17,10.0,Calm,Calm,-,N/A,,Clear,0,2013-10-22 12:53:00
7:53 AM,39.9,28.9,65,30.17,10.0,Calm,Calm,-,N/A,,Clear,0,2013-10-22 13:53:00
8:53 AM,50.0,33.1,52,30.18,10.0,Calm,Calm,-,N/A,,Clear,0,2013-10-22 14:53:00
9:53 AM,57.0,36.0,45,30.17,10.0,East,8.1,-,N/A,,Clear,100,2013-10-22 15:53:00
10:53 AM,61.0,36.0,39,30.16,10.0,East,6.9,-,N/A,,Clear,90,2013-10-22 16:53:00
11:53 AM,64.9,34.0,32,30.14,10.0,East,8.1,-,N/A,,Clear,100,2013-10-22 17:53:00
12:53 PM,68.0,33.1,27,30.10,10.0,East,9.2,-,N/A,,Clear,90,2013-10-22 18:53:00
1:53 PM,70.0,30.9,24,30.06,10.0,SE,10.4,-,N/A,,Clear,130,2013-10-22 19:53:00
2:53 PM,73.0,30.0,20,30.04,10.0,ESE,8.1,-,N/A,,Clear,110,2013-10-22 20:53:00
3:53 PM,73.9,28.0,18,30.03,10.0,ENE,8.1,-,N/A,,Clear,70,2013-10-22 21:53:00
4:53 PM,73.9,27.0,18,30.01,10.0,East,9.2,-,N/A,,Clear,100,2013-10-22 22:53:00
5:53 PM,71.1,28.0,20,30.02,10.0,East,8.1,-,N/A,,Clear,90,2013-10-22 23:53:00
6:53 PM,62.1,28.0,28,30.06,10.0,East,6.9,-,N/A,,Clear,80,2013-10-23 00:53:00
7:53 PM,55.9,28.0,34,30.08,10.0,SSE,4.6,-,N/A,,Clear,150,2013-10-23 01:53:00
8:53 PM,53.1,26.1,35,30.07,10.0,NE,9.2,-,N/A,,Clear,50,2013-10-23 02:53:00
9:53 PM,52.0,26.1,37,30.07,10.0,NE,6.9,-,N/A,,Clear,40,2013-10-23 03:53:00
10:53 PM,50.0,26.1,39,30.06,10.0,NNE,6.9,-,N/A,,Clear,30,2013-10-23 04:53:00
11:53 PM,50.0,27.0,41,30.04,10.0,NNE,8.1,-,N/A,,Clear,30,2013-10-23 05:53:00